FW6122 Weather Reports


Display with metric or nautical units.
time (UTC)temp
F
wind
direction
speed
MPH
gust
MPH
rain 1hr
in
rain 24hr
in
rain mn
in
humidity
%
barometer
mb
20260831073014 63 209 4.0 7.0 0.00 0.00 0.00 29 1009.4
20260831071524 63 221 3.0 6.0 0.00 0.00 0.00 31 1009.5
20260831070020 63 230 3.0 7.0 0.00 0.00 0.00 31 1009.7
20260831064512 64 230 3.0 6.0 0.00 0.00 0.00 31 1009.8
20260831063009 64 234 3.0 6.0 0.00 0.00 0.00 32 1009.9
20260831061508 64 221 3.0 8.0 0.00 0.00 0.00 33 1009.8
20260831060008 64 249 3.0 7.0 0.00 0.00 0.00 33 1009.9
20260831054508 64 213 3.0 6.0 0.00 0.00 0.00 34 1010.0
20260831053007 64 224 3.0 5.0 0.00 0.00 0.00 34 1010.1
20260831051506 64 214 2.0 5.0 0.00 0.00 0.00 34 1010.0
20260831050005 64 233 3.0 5.0 0.00 0.00 0.00 34 1010.0
20260831044504 64 235 2.0 7.0 0.00 0.00 0.00 34 1010.0
20260831043007 64 250 2.0 5.0 0.00 0.00 0.00 34 1009.8
20260831041508 65 242 3.0 7.0 0.00 0.00 0.00 32 1009.6
20260831040003 65 243 3.0 7.0 0.00 0.00 0.00 33 1009.5
20260831034502 65 215 3.0 6.0 0.00 0.00 0.00 33 1009.3
20260831033003 65 210 3.0 5.0 0.00 0.00 0.00 35 1009.1
20260831031604 65 240 2.0 7.0 0.00 0.00 0.00 37 1008.8
20260831030105 66 225 3.0 6.0 0.00 0.00 0.00 37 1008.6
20260831024617 66 234 3.0 7.0 0.00 0.00 0.00 35 1008.6
20260831023057 67 229 3.0 6.0 0.00 0.00 0.00 35 1008.5
20260831021558 68 240 4.0 7.0 0.00 0.00 0.00 35 1008.5
20260831020113 69 233 3.0 6.0 0.00 0.00 0.00 35 1008.5
20260831014609 70 221 3.0 6.0 0.00 0.00 0.00 34 1008.5
20260831013056 71 202 3.0 7.0 0.00 0.00 0.00 34 1008.5
20260831011604 72 183 2.0 6.0 0.00 0.00 0.00 33 1008.3
20260831010053 73 221 3.0 6.0 0.00 0.00 0.00 34 1008.2
20260831004553 73 217 3.0 9.0 0.00 0.00 0.00 34 1008.4
20260831003052 75 211 3.0 9.0 0.00 0.00 0.00 32 1008.3
20260831001556 77 222 4.0 6.0 0.00 0.00 0.00 32 1008.6
20260831000051 77 148 3.0 8.0 0.00 0.00 0.00 33 1008.6
20260830234609 78 242 4.0 9.0 0.00 0.00 0.00 34 1008.5
20260830233050 78 148 3.0 9.0 0.00 0.00 0.00 34 1008.5
20260830231551 79 159 4.0 9.0 0.00 0.00 0.00 34 1008.5
20260830230050 79 167 3.0 7.0 0.00 0.00 0.00 33 1008.7
20260830224550 80 271 4.0 9.0 0.00 0.00 0.00 33 1008.7
20260830223046 81 236 3.0 7.0 0.00 0.00 0.00 32 1008.9
20260830221547 80 232 3.0 8.0 0.00 0.00 0.00 33 1009.1
20260830220046 81 153 3.0 7.0 0.00 0.00 0.00 33 1009.3
20260830214553 81 244 3.0 8.0 0.00 0.00 0.00 33 1009.4
20260830213045 81 210 2.0 5.0 0.00 0.00 0.00 34 1009.8
20260830211545 82 256 3.0 7.0 0.00 0.00 0.00 34 1010.0
20260830210043 82 267 2.0 8.0 0.00 0.00 0.00 33 1010.1
20260830204541 82 244 2.0 6.0 0.00 0.00 0.00 34 1010.1
20260830203039 82 254 2.0 7.0 0.00 0.00 0.00 32 1010.2
20260830201604 82 167 3.0 7.0 0.00 0.00 0.00 31 1010.3
20260830200038 81 167 2.0 6.0 0.00 0.00 0.00 31 1010.3
20260830194538 81 184 3.0 7.0 0.00 0.00 0.00 31 1010.4
20260830193041 82 183 2.0 5.0 0.00 0.00 0.00 30 1010.5
20260830191537 81 198 1.0 6.0 0.00 0.00 0.00 31 1010.5
20260830190037 81 145 4.0 7.0 0.00 0.00 0.00 31 1010.6
20260830184535 80 306 1.0 6.0 0.00 0.00 0.00 32 1010.7
20260830183028 79 304 1.0 5.0 0.00 0.00 0.00 32 1010.7
20260830181528 79 218 2.0 5.0 0.00 0.00 0.00 33 1010.8
20260830180026 79 205 1.0 4.0 0.00 0.00 0.00 33 1010.9
20260830174523 77 210 2.0 5.0 0.00 0.00 0.00 34 1011.0
20260830173027 77 207 2.0 6.0 0.00 0.00 0.00 34 1010.9
20260830171517 76 148 2.0 6.0 0.00 0.00 0.00 35 1010.7
20260830170012 75 156 2.0 6.0 0.00 0.00 0.00 35 1010.8
20260830164509 73 204 0.0 4.0 0.00 0.00 0.00 36 1010.8
20260830163006 72 293 0.0 4.0 0.00 0.00 0.00 36 1010.7
20260830161503 71 257 1.0 4.0 0.00 0.00 0.00 37 1010.4
20260830160059 71 275 2.0 6.0 0.00 0.00 0.00 36 1010.1
20260830154556 70 203 1.0 3.0 0.00 0.00 0.00 38 1009.9
20260830153052 69 246 1.0 4.0 0.00 0.00 0.00 41 1009.7
20260830151557 68 242 3.0 5.0 0.00 0.00 0.00 41 1009.7
20260830150044 68 234 3.0 6.0 0.00 0.00 0.00 42 1009.7
20260830144544 67 240 3.0 7.0 0.00 0.00 0.00 42 1009.6
20260830143037 66 250 3.0 7.0 0.00 0.00 0.00 43 1009.5
20260830141534 65 248 3.0 6.0 0.00 0.00 0.00 45 1009.3
20260830140035 65 231 3.0 6.0 0.00 0.00 0.00 47 1009.2
20260830134534 65 205 3.0 8.0 0.00 0.00 0.00 48 1009.0
20260830133039 64 196 3.0 9.0 0.00 0.00 0.00 51 1008.9
20260830131529 64 237 3.0 10.0 0.00 0.00 0.00 52 1008.7
20260830130027 64 220 3.0 9.0 0.00 0.00 0.00 54 1008.5
20260830124526 64 228 3.0 7.0 0.00 0.00 0.00 56 1008.5
20260830123025 64 244 4.0 9.0 0.00 0.00 0.00 57 1008.5
20260830121523 64 242 3.0 7.0 0.00 0.00 0.00 56 1008.3
20260830120023 64 172 3.0 10.0 0.00 0.00 0.00 56 1008.4
20260830114523 64 200 3.0 9.0 0.00 0.00 0.00 55 1008.5
20260830113017 65 194 4.0 9.0 0.00 0.00 0.00 53 1008.5
20260830111516 65 200 3.0 7.0 0.00 0.00 0.00 51 1008.5
20260830110016 65 215 2.0 6.0 0.00 0.00 0.00 51 1008.5
20260830104514 65 224 2.0 8.0 0.00 0.00 0.00 50 1008.4
20260830103013 65 234 3.0 9.0 0.00 0.00 0.00 50 1008.3
20260830101511 66 188 3.0 8.0 0.00 0.00 0.00 50 1008.2
20260830100013 66 153 3.0 8.0 0.00 0.00 0.00 50 1008.0
20260830094517 66 169 4.0 8.0 0.00 0.00 0.00 49 1007.6
20260830093011 66 228 5.0 9.0 0.00 0.00 0.00 48 1007.5
20260830091508 66 236 3.0 8.0 0.00 0.00 0.00 49 1007.5
20260830090019 66 229 4.0 10.0 0.00 0.00 0.00 49 1007.6
20260830084506 66 238 4.0 8.0 0.00 0.00 0.00 48 1007.6
20260830083002 66 225 4.0 9.0 0.00 0.00 0.00 48 1007.9
20260830081600 66 225 3.0 7.0 0.00 0.00 0.00 48 1008.0
20260830080059 66 201 3.0 6.0 0.00 0.00 0.00 48 1008.3
20260830074613 66 229 3.0 7.0 0.00 0.00 0.00 49 1008.4